www.pogodaiklimat.ru

Погода и климат >> Архив погоды >> Индия >> Гуджарат >> Дварка


ПОГОДА в Дварке

  • Прогноз погоды в Дварке
  • Монитор погоды в Дварке

АРХИВ ПОГОДЫ в Дварке

Время (UTC), дата Ветер
(напр.,м/с)
 
Видим.   Явления Облачность Т
(С)
Тd
(С)
f
(%)
Тe
(С)
Тes
(С)
Комфортность P
(гПа)
Po
(гПа)
Тmin
(С)
Tmax
(С)
R
(мм)
R24
(мм)
S
(см)
18 16.09 З 3 4000 м 3/3 600 м
[Sc]
+28.6 +26.1 86 +43 +43 опасность
перегрева
1006.7 1005.4
21 16.09 З 2 4000 м 4/4 600 м
[Sc]
+28.4 +26.2 88 +43 +43 опасность
перегрева
1005.7 1004.4
00 17.09 З 2 4000 м 8/4 600 м
[Sc Ac cuf]
+28.4 +25.6 85 +42 +42 опасность
перегрева
1005.5 1004.2
03 17.09 З 2 4000 м 8/5 600 м
[Sc Ac cuf]
+28.8 0.0 15 +26 +27 жарко 1007.3 1006.0 +28.2
06 17.09 З 2 4000 м 8/6 600 м
[Sc Ac cuf]
+30.4 0.0 14 +27 +32 жарко 1007.5 1006.3
09 17.09 З 2 4000 м 3/3 600 м
[Sc]
+31.0 0.0 14 +28 +39 жарко 1006.1 1004.9
12 17.09 З 2 4000 м 3/3 600 м
[Sc]
+30.4 0.0 14 +27 +29 жарко 1005.1 1003.9 +31.2
15 17.09 З 2 4000 м 3/3 600 м
[Sc]
+29.0 +25.6 82 +43 +43 опасность
перегрева
1006.1 1004.8
18 17.09 З 2 4000 м 3/3 600 м
[Sc]
+28.6 +25.8 85 +43 +43 опасность
перегрева
1006.0 1004.7
21 17.09 З 2 4000 м 1/1 600 м
[Sc]
+28.2 +25.7 86 +42 +42 опасность
перегрева
1006.4 1005.1
00 18.09 З 2 4000 м 6/5 600 м
[Sc Ac trans]
+28.0 +25.7 87 +41 +41 опасность
перегрева
1006.3 1005.0
03 18.09 З 1 4000 м 8/6 600 м
[Sc Ac trans]
+28.8 0.0 15 +26 +27 жарко 1008.7 1007.4 +27.7
06 18.09 З 2 4000 м 8/6 600 м
[Sc Ac trans]
+30.8 0.0 14 +28 +33 жарко 1009.5 1008.3
09 18.09 З 2 4000 м 4/3 600 м
[Cu med, cong Ci fib]
+31.0 0.0 14 +28 +39 жарко 1007.7 1006.5
12 18.09 З 2 4000 м 4/3 600 м
[Sc Ci fib]
+30.6 0.0 14 +28 +29 жарко 1006.8 1005.6 +31.6
15 18.09 З 2 4000 м 3/3 600 м
[Sc]
+29.2 +25.5 80 +43 +43 опасность
перегрева
1007.9 1006.6
18 18.09 З 2 4000 м 3/3 600 м
[Sc]
+28.6 +25.5 83 +42 +42 опасность
перегрева
1008.6 1007.3
21 18.09 З 2 4000 м 3/3 600 м
[Sc]
+28.2 +25.4 85 +41 +41 опасность
перегрева
1007.6 1006.3
00 19.09 З 2 4000 м 3/3 600 м
[Sc]
+28.0 +25.7 87 +41 +41 опасность
перегрева
1007.2 1005.9
03 19.09 З 2 4000 м 5/5 600 м
[Sc]
+28.8 0.0 15 +26 +28 жарко 1008.5 1007.2 +27.9
06 19.09 СЗ 2 4000 м 5/5 600 м
[Sc]
+31.2 0.0 13 +28 +36 жарко 1009.0 1007.8
09 19.09 С 3 4000 м 4/4 600 м
[Sc]
+31.6 0.0 13 +28 +36 жарко 1007.1 1005.9
12 19.09 З 2 4000 м 4/4 600 м
[Sc]
+30.4 0.0 14 +27 +29 жарко 1005.8 1004.6 +32.0
15 19.09 З 2 4000 м 3/3 600 м
[Sc]
+29.0 +24.7 78 +41 +41 опасность
перегрева
1006.6 1005.3
18 19.09 С 2 4000 м 3/3 600 м
[Sc]
+28.6 +24.3 78 +40 +40 очень
душно
1007.5 1006.2
00 20.09 С 2 4000 м 3/3 600 м
[Sc]
+27.2 +24.6 86 +39 +39 очень
душно
1005.3 1004.0
03 20.09 С 1 4000 м 8/3 600 м
[Sc Ac trans]
+28.4 0.0 16 +26 +27 жарко 1007.4 1006.1 +27.2
06 20.09 С 2 4000 м 8/4 600 м
[Sc Ac trans]
+32.0 0.0 13 +29 +35 жарко 1007.0 1005.8
09 20.09 З 2 4000 м 4/4 600 м
[Sc]
+33.2 0.0 12 +30 +39 жарко 1004.4 1003.2
12 20.09 З 2 4000 м 4/1 600 м
[Sc Ac trans]
+30.4 0.0 14 +27 +29 жарко 1004.7 1003.5 +33.8
15 20.09 СЗ 2 4000 м {гроза, дождь} 8/3 300 м
[Frnb Ac As]
+29.4 +24.8 76 +42 +42 опасность
перегрева
1005.3 1004.1 0.2
18 20.09 З 2 4000 м {гроза, дождь} 4/4 600 м
[Sc]
+29.0 +27.1 90 +46 +46 опасность
перегрева
1006.0 1004.7 0.2
21 20.09 З 2 4000 м 4/4 600 м
[Sc Ac trans]
+28.8 +27.1 91 +46 +46 опасность
перегрева
1004.1 1002.9 0.2
00 21.09 З 1 4000 м 4/4 600 м
[Sc]
+28.4 +27.0 92 +45 +45 опасность
перегрева
1004.1 1002.8 0.2
03 21.09 С 2 4000 м 8/4 600 м
[Sc Ac trans]
+28.8 0.0 15 +26 +27 жарко 1006.1 1004.8 +28.1 0.2
06 21.09 СВ 2 4000 м 8/6 600 м
[Sc diur, vesp Ac trans]
+32.6 0.0 12 +29 +34 жарко 1005.8 1004.6
09 21.09 В 2 4000 м 5/3 600 м
[Cu med, cong Ac cuf Ci fib]
+34.0 0.0 11 +30 +41 жарко 1003.7 1002.5
12 21.09 ЮЗ 2 4000 м 9/5 600 м
[Sc Ac As]
+30.6 0.0 14 +28 +28 жарко 1002.9 1001.7 +34.7
15 21.09 В 2 2000 м гроза, ливневой дождь 10/8 300 м
[Cb cap Ac As]
+28.2 +25.1 83 +41 +41 опасность
перегрева
1004.7 1003.4 0.0
18 21.09 штиль 0 4000 м {гроза} 10/5 600 м
[Sc Ac As]
+27.6 +25.3 87 +40 +40 очень
душно
1005.1 1003.8 0.0
21 21.09 В 2 4000 м 5/3 600 м
[Sc Ac und]
+27.8 +24.6 83 +39 +39 очень
душно
1004.5 1003.2 0.0
00 22.09 нст 1 4000 м 5/3 600 м
[Sc Ac trans]
+27.4 +25.4 89 +40 +40 очень
душно
1003.8 1002.5 0.0
03 22.09 С 1 4000 м 9/3 600 м
[Frnb Ac trans]
+28.2 0.0 16 +26 +27 жарко 1006.1 1004.8 +27.0 0.0
06 22.09 В 3 4000 м 10/5 600 м
[Sc Ac As]
+30.2 0.0 14 +27 +29 жарко 1006.5 1005.3
09 22.09 СВ 3 4000 м 9/3 600 м
[Sc Ac As Ci fib]
+31.0 0.0 14 +28 +33 жарко 1003.7 1002.5
12 22.09 СВ 3 2000 м гроза, ливневой дождь 10/8 300 м
[Cb cap As op]
+30.8 0.0 14 +28 +28 жарко 1003.8 1002.6 +31.7 0.0
15 22.09 ЮВ 2 4000 м {гроза, дождь} 10/5 300 м
[Frnb Ac As]
+27.8 +25.5 87 +41 +41 опасность
перегрева
1005.3 1004.0 1
18 22.09 В 2 4000 м {гроза, дождь} 6/4 600 м
[Sc Ac As]
+27.4 +25.1 87 +39 +39 очень
душно
1006.3 1005.0 1
21 22.09 В 2 4000 м 9/6 600 м
[Sc Ac As]
+27.0 +25.0 89 +39 +39 очень
душно
1006.1 1004.8 1
00 23.09 ЮЗ 2 4000 м 8/6 600 м
[Sc Ac As Ci fib]
+26.8 +25.1 90 +39 +39 очень
душно
1006.2 1004.9 1
03 23.09 ЮВ 2 4000 м 6/5 600 м
[Sc Ac trans]
+28.4 0.0 16 +26 +27 жарко 1008.6 1007.3 +26.6 1
06 23.09 В 4 4000 м 3/3 600 м
[Cu med, cong]
+30.4 0.0 14 +27 +35 жарко 1009.3 1008.1
09 23.09 ЮВ 2 4000 м 4/3 600 м
[Cu Sc Ci fib]
+31.4 0.0 13 +28 +39 жарко 1007.8 1006.6
12 23.09 Ю 2 4000 м 6/4 600 м
[Sc Ac lent Ci]
+31.0 0.0 14 +28 +29 жарко 1006.8 1005.6 +31.9
15 23.09 Ю 2 4000 м 3/3 600 м
[Sc]
+29.2 +25.5 80 +43 +43 опасность
перегрева
1008.3 1007.0

 

Местоположение метеостанции Дварка (Гуджарат, Индия): широта 22.37 долгота 69.08 высота над уровнем моря 11 м.

В архиве по умолчанию представлена погода в Дварке за последнюю неделю. Архивные данные за месяц целиком и за предыдущие месяцы, начиная с января 2011 года, Вы можете получить, выбрав интересующий диапазон дат из раскрывающегося списка и нажав кнопку "Ввод!".


*Определитесь, кто Вы:
робот инопланетянин человек

Внимание! Время в таблицах - всемирное. Для получения местного времени необходимо прибавить поправку, которая равна 5.5 ч.

Смотрите также архив погоды в соседних городах и на ближайших метеорологических станциях:

Погода в Охе (Гуджарат, Индия) (13 км)
Погода в Мандви (Гуджарат, Индия) (54 км)
Погода в Порбандаре (Гуджарат, Индия) (101 км)
Погода в Налии (Гуджарат, Индия) (101 км)
Погода в Бхудже (Гуджарат, Индия) (115 км)
Погода в Кандле (Гуджарат, Индия) (133 км)
Погода в Нью-Кандле (Гуджарат, Индия) (136 км)
Погода в Раджкоте (Гуджарат, Индия) (175 км)
Погода в Веравале (Гуджарат, Индия) (211 км)
Погода в Амрели (Гуджарат, Индия) (237 км)

Пояснения к столбцам:

Ветер - указаны скорость ветра в м/с - средняя за 10 мин, порывы в срок и между сроками (в фигурных скобках) и направление, откуда дует ветер: С - северный, СВ - северо-восточный, В - восточный, ЮВ - юго-восточный, Ю - южный, ЮЗ - юго-западный, З - западный, СЗ - северо-западный.
Видимость - горизонтальная дальность видимости в метрах или километрах. При видимости от 1 до 10 км при отсутствии осадков обычно наблюдается дымка, при ухудшении видимости до 1 км и менее - туман. В сухую погоду видимость может ухудшаться дымом, пылью или мглою.
Явления - указаны атмосферные явления, наблюдавшиеся в срок или в последний час перед сроком; фигурными скобками обозначены явления, наблюдавшиеся между сроками (за 1-3 часа до срока); квадратными скобками обозначены град или гололедные отложения с указанием их диаметра в мм.
Облачность - указаны через наклонную черту общая и нижняя облачность в баллах и высота нижней границы облаков в метрах; квадратными скобками обозначены формы облаков: Ci - перистые, Cs - перисто-слоистые, Cc - перисто-кучевые, Ac - высококучевые, As - высокослоистые, Sc - слоисто-кучевые, Ns - слоисто-дождевые, Cu - кучевые, Cb - кучево-дождевые. Подробнее классификацию облаков см. в Атласе облаков (PDF).
T - Температура воздуха - температура, измеренная на высоте 2 м над землей.
Td - Температура точки росы - температура, при понижении до которой содержащийся в воздухе водяной пар достигнет насыщения.
f - Относительная влажность воздуха - влажноcть воздуха, измеренная на высоте 2 м над землей.
Te - Эффективная температура - температура, которую ощущает одетый по сезону человек в тени. Характеристика душности погоды. При расчете учитывается влияние влажности воздуха и скорости ветра на теплоощущения человека.
Tes - Эффективная температура на солнце - температура, которую ощущает человек, с поправкой на солнечный нагрев. Характеристика знойности погоды. Зависит от высоты солнца над горизонтом, облачности и скорости ветра. Ночью, в пасмурную погоду, а также при ветре 12 м/с и более поправка равна нулю.
P - Атмосферное давление - приведенное к уровню моря атмосферное давление.
Po - Атмосферное давление - измеренное на уровне метеостанции атмосферное давление.
Tmin - Минимальная температура - минимум температуры воздуха на высоте 2 м над землей.
Tmax - Максимальная температура - максимум температуры воздуха на высоте 2 м над землей.
R - Количество осадков - Количество выпавших осадков за период времени, мм. При наведении курсора мыши на число - период времени, за который выпало указанное количество осадков.
R24 - Количество осадков - Количество выпавших осадков за 24 часа, мм.
S - Снежный покров - Высота снежного покрова, см. При наведении курсора мыши на число - состояние снежного покрова и степень покрытия местности в баллах.